Weather in Lyady

Russia / Pskov Oblast     58°37′46″N   28°46′29″E
temp.,
°C
wind,
m/s
gust,
m/s
humid.,
%
clouds,
%
prec.,
mm/h
press.,
hPa
HPBL,
m
9 march, tue
tue900:00−13nnw25940 0.0 1017108
03:00−15nnw22960 0.0 101928
06:00−16n12960 0.0 101920
09:00−14e119221 0.0 102164
12:00−10ese1276100 0.0 1021400
15:00−8se2270100 0.0 1021594
18:00−9ese3580100 0.0 1021517
21:00−11e4886100 0.4 1023478
10 march, wed
wed1000:00−12e4983100 0.4 1024500
03:00−15e498898 0.4 1025374
06:00−17e411900 0.0 1026340
09:00−17e410884 0.0 1028340
12:00−12ese5106980 0.0 1028548
15:00−9ese586071 0.0 1029734
18:00−11ese496971 0.0 1028571
21:00−13ese4127878 0.0 1029461
11 march, thu
thu1100:00−12se41177100 0.0 1028520
03:00−12se41181100 0.0 1028474
06:00−12se41093100 0.7 1026417
09:00−12sse489099 1.0 1026383
12:00−7sse4786100 0.1 1025414
15:00−3s497878 0.1 1023676
18:00−3s410840 0.0 1021669
21:00−6sse413880 0.0 1020493
12 march, fri
fri1200:00−7s514890 0.0 1019601
03:00−7sse5159013 0.0 1016673
06:00−8sse61588100 0.0 1014694
09:00−7sse61684100 0.0 1012820
12:00−3sse71379100 0.0 1010922
15:00−2sse71383100 0.1 10081059
18:00−3s61388100 0.4 10071118
21:00−3sse51294100 1.0 1006927
13 march, sat
sat1300:00−3sse51195100 1.0 1005701
03:00−3s4996100 2.1 1004477
06:00−2s3896100 0.6 1004333
09:00+1ssw41098100 0.7 1004588
12:00+2ssw41093100 0.1 1004736
15:00+3s51287100 0.1 1003990
18:00+2sw51398100 1.0 1002871
21:00+1sw51197100 1.1 1002758